User: anonymous   Login
Location: Unspecified
(44.0704°N, 88.6889°W)
Time: 21:16:03
(UTC+02:00)
Language:

Explorer 7 - Orbit

View from above orbital plane
View from above orbital plane
View from above satellite
View from above satellite

Ground track
Ground track

The orbit data is extracted from the following two-line orbital elements,

1    22U 59009A   20220.56363988 -.00000037 +00000-0 +20753-4 0  9993
2    22 050.2819 222.2473 0139366 094.0166 267.6725 14.95170095478024
Epoch (UTC): 07 August 2020 13:31:38
Eccentricity: 0.0139366
inclination: 50.2819°
perigee height: 485 km
apogee height: 679 km
right ascension of ascending node: 222.2473°
argument of perigee: 94.0166°
revolutions per day: 14.95170095
mean anomaly at epoch: 267.6725°
orbit number at epoch: 47802

The dashed part of the orbit path shows where the satellite is in the earth's shadow,  

DLR